Dr. Bill's Marine Weather

Coastal Marine Forecast

       Alabama   Florida   Louisiana   Mississippi

Printer Friendly AL  FL  LA  MS

Data Buoys:   Western Gulf of Mexico    Eastern Gulf of Mexico
**********************************************************************
  Alabama
300 PM CDT THU JUN 30 2016

ALZ051>064-302100-
SOUTHWEST ALABAMA
  
CITY           SKY/WX    TMP DP  RH WIND       PRES   REMARKS
MOBILE         PTSUNNY   90  72  55 S10       29.95F HX  97           
BROOKLEY FIELD PTSUNNY   86  76  71 S8        29.95F HX  96           
EVERGREEN      PTSUNNY   89  70  53 SE7       29.94F HX  94           
**********************************************************************
  Florida
400 PM EDT THU JUN 30 2016

FLZ001>010-012>015-112-114-115-302100-
PANHANDLE FLORIDA
  
CITY           SKY/WX    TMP DP  RH WIND       PRES   REMARKS
PENSACOLA      CLOUDY    84  72  67 S9        29.96F                  
PENSACOLA NAS  PTSUNNY   84  74  71 S8        29.95F                  
MILTON NAS     PTSUNNY   86  76  71 SE10      29.95  HX  96           
CRESTVIEW      CLOUDY    87  72  60 S12       29.98F                  
DUKE FIELD     PTSUNNY   85  72  66 S10       29.96F                  
VALPARAISO     PTSUNNY   82  73  75 S9        29.97F                  
MARY ESTHER    PTSUNNY   84  73  69 S8        29.95                   
TRI COUNTY     FAIR      83  72  69 S8        29.97F                  
PANAMA CITY    PTSUNNY   81  74  79 SE9       29.97F                  
TYNDALL AFB    PTSUNNY   78  75  88 SE2       29.98F                  
APALACHICOLA   CLOUDY    79  78  97 CALM      29.98F                  

STATION/POSITION SKY/WX   TEMP    WIND        PRES    WAVE   SWELL
                          AIR SEA DIR/SP/G            HT/PER HT/PER
                          (F)     (DEG/KT/KT) (MB)    (FT/S) (FT/S)
30.1N   87.6W              81 87              1014.6F   1/ 8
29.2N   88.2W              77 85  140/  8/ 10 1014.6F
28.8N   86.0W              78 84  260/  6/  8 1015.6F   2/ 5   2/ 5
PANAMA CITY BEAC           79 84  160/  6/  7 1015.8F
TOWER C                    78     140/  5/  6 1016.3F
28.5N   84.5W              79 85  240/  6/ 10 1016.0R   2/ 4   2/ 5

**********************************************************************
  Louisiana
300 PM CDT THU JUN 30 2016

LAZ040-048-061>063-065-066-069-302100-
SOUTHEAST LOUISIANA
  
CITY           SKY/WX    TMP DP  RH WIND       PRES   REMARKS
N.O. AUDUBON     N/A     91  79  67 MISG        N/A  HX 108           
N.O. INTL ARPT MOSUNNY   91  73  55 VRB5      29.93F HX  99           
N.O. LAKEFRONT MOSUNNY   89  73  59 E8        29.94F HX  97           
N.O. DOWNTOWN* FAIR      89  71  55 SE8       29.95S HX  95           
RESERVE*       FAIR      91  72  53 NE5       29.93F HX  99           
SLIDELL        PTSUNNY   89  78  70 S10       29.92F HX 103           
BATON ROUGE    MOSUNNY   94  70  45 E6        29.93F HX 100           
BOOTHVILLE     NOT AVBL                                               
BELLE CHASSE   CLOUDY    86  76  71 S9        29.94F HX  96           
BOGALUSA*      FAIR      92  70  48 NE6       29.95F HX  97           
GALLIANO*      CLOUDY    85  74  70 E5        29.95S                  
NEW ROADS*     FAIR      91  72  53 E7        29.94F HX  98           
GONZALES*      MOCLDY    91  72  53 E3        29.92F HX  98           
HAMMOND*       SUNNY     95  68  41 E8        29.93F HX  99           
HOUMA*         NOT AVBL                                               
PORT FOURCHON* CLEAR     79  73  83 SE7       29.95S                  

**********************************************************************
  Mississippi
400 PM CDT THU JUN 30 2016

MSZ080>082-302200-
COASTAL MISSISSIPPI
  
CITY           SKY/WX    TMP DP  RH WIND       PRES   REMARKS
BAY ST LOUIS   MOSUNNY   88  70  55 SE6         N/A  HX  92           
BILOXI         PTSUNNY   85  76  73 S10       29.93F HX  95           
PASCAGOULA     PTSUNNY   86  75  69 S10       29.93F HX  95           
GULFPORT       MOSUNNY   86  74  67 S8        29.93F HX  94           
About Us | Coastal Marine Forecast | Offshore Marine Forecast
Gulf Coast Tides | Hourly Weather Observations | Weather Radar
Sea Surface Temperatures | Solar/Lunar Data | Hurricane Advisories | Home
     
USA Logo Dr. Bill's Marine Weather
Last date changed: December 9, 2014 4:08 PM
www.gulfmarineweather.com/hourlyweatherobservations.shtml
Contact Us